TimeEDT,TemperatureF,Dew PointF,Humidity,Sea Level PressureIn,VisibilityMPH,Wind Direction,Wind SpeedMPH,Gust SpeedMPH,PrecipitationIn,Events,Conditions,WindDirDegrees,DateUTC
12:53 AM,79.0,75.9,90,29.86,10.0,SW,3.5,-,N/A,,Clear,220,2013-09-26 04:53:00
1:53 AM,79.0,75.9,90,29.86,10.0,WSW,5.8,-,N/A,,Clear,250,2013-09-26 05:53:00
2:53 AM,78.1,77.0,96,29.85,10.0,WSW,4.6,-,N/A,,Clear,240,2013-09-26 06:53:00
3:53 AM,78.1,75.9,93,29.84,10.0,Calm,Calm,-,N/A,,Clear,0,2013-09-26 07:53:00
4:53 AM,77.0,75.9,96,29.85,10.0,Calm,Calm,-,N/A,,Clear,0,2013-09-26 08:53:00
5:53 AM,77.0,75.9,96,29.86,10.0,SSW,4.6,-,N/A,,Clear,200,2013-09-26 09:53:00
6:53 AM,78.1,77.0,96,29.87,10.0,SW,4.6,-,N/A,,Clear,220,2013-09-26 10:53:00
7:53 AM,79.0,78.1,97,29.87,10.0,SSW,5.8,-,N/A,,Clear,210,2013-09-26 11:53:00
8:53 AM,82.9,79.0,88,29.89,10.0,WSW,6.9,-,N/A,,Clear,250,2013-09-26 12:53:00
9:53 AM,86.0,77.0,74,29.89,10.0,WSW,11.5,-,N/A,,Scattered Clouds,250,2013-09-26 13:53:00
10:33 AM,87.8,77.0,70,29.90,10.0,WSW,12.7,-,N/A,,Mostly Cloudy,250,2013-09-26 14:33:00
10:41 AM,87.8,77.0,70,29.90,10.0,WSW,12.7,-,N/A,,Mostly Cloudy,250,2013-09-26 14:41:00
10:53 AM,88.0,77.0,70,29.89,10.0,West,12.7,-,N/A,,Mostly Cloudy,260,2013-09-26 14:53:00
11:53 AM,89.1,75.0,63,29.88,10.0,West,15.0,23.0,N/A,,Scattered Clouds,260,2013-09-26 15:53:00
12:53 PM,91.0,75.9,61,29.86,10.0,West,16.1,24.2,0.01,,Partly Cloudy,260,2013-09-26 16:53:00
1:53 PM,91.0,75.9,61,29.83,10.0,WSW,18.4,25.3,N/A,,Partly Cloudy,250,2013-09-26 17:53:00
2:53 PM,91.9,75.9,59,29.83,10.0,West,19.6,26.5,N/A,,Mostly Cloudy,280,2013-09-26 18:53:00
3:53 PM,91.9,77.0,62,29.83,10.0,West,18.4,24.2,0.00,,Scattered Clouds,280,2013-09-26 19:53:00
4:53 PM,86.0,75.9,72,29.84,10.0,NNW,17.3,28.8,N/A,,Mostly Cloudy,330,2013-09-26 20:53:00
5:00 PM,86.0,75.2,70,29.83,10.0,NNW,16.1,-,N/A,,Scattered Clouds,340,2013-09-26 21:00:00
5:53 PM,84.0,75.0,74,29.83,10.0,NW,13.8,-,N/A,,Partly Cloudy,310,2013-09-26 21:53:00
6:53 PM,84.0,75.0,74,29.84,10.0,WNW,15.0,-,N/A,,Clear,290,2013-09-26 22:53:00
7:53 PM,82.9,77.0,82,29.84,10.0,WNW,9.2,-,N/A,,Clear,290,2013-09-26 23:53:00
8:53 PM,82.0,75.9,82,29.85,10.0,WNW,10.4,-,N/A,,Clear,290,2013-09-27 00:53:00
9:53 PM,81.0,75.9,85,29.86,10.0,West,8.1,-,N/A,,Clear,280,2013-09-27 01:53:00
10:53 PM,78.1,75.9,93,29.87,10.0,West,5.8,-,N/A,,Clear,280,2013-09-27 02:53:00
11:53 PM,80.1,77.0,90,29.87,10.0,West,4.6,-,N/A,,Clear,260,2013-09-27 03:53:00